Weather History for Stillwater, OK

Change the Weather History Date:

Sunday, November 10, 2013

  Actual Average Record
Temperature  
Mean Temperature 54 °F -  
Max Temperature 64 °F 58 °F 79 °F (2007)
Min Temperature 44 °F 39 °F 26 °F (2000)
Degree Days  
Heating Degree Days 11    
Growing Degree Days 4 (Base 50)    
Moisture  
Dew Point 46 °F    
Average Humidity 78    
Maximum Humidity 93    
Minimum Humidity 54    
Precipitation  
Precipitation 0.00 in - - ()
Sea Level Pressure  
Sea Level Pressure 30.29 in    
Wind  
Wind Speed 3 mph (SE)    
Max Wind Speed 8 mph    
Max Gust Speed -    
Visibility 10 miles    
Events      
Averages and records for this station are not official NWS values.
T = Trace of Precipitation, MM = Missing Value Source: NWS Daily Summary

Daily Weather History Graph

Daily Weather History Graph

Search for Another Location

Airport:

Trip Planner

Search our weather history database for the weather conditions in past years. The results will help you decide how hot, cold, wet, or windy it might be!

Date:

Astronomy

Nov. 10, 2013 Rise Set
Actual Time 7:00 AM CST 5:23 PM CST
Civil Twilight 6:33 AM CST 5:50 PM CST
Nautical Twilight 6:02 AM CST 6:21 PM CST
Astronomical Twilight 5:32 AM CST 6:51 PM CST
Moon 1:18 PM CST (11/10) No Moon Set
Length of Visible Light 11h 17m
Length of Day
10h 23m
First Quarter, 56% of the Moon is Illuminated
Nov 10
First Quarter
Nov 17
Full
Nov 25
Last Quarter
Dec 2
New
Dec 9
First Quarter

Hourly Weather History & Observations

Time (CST) Temp. Dew Point Humidity Pressure Visibility Wind Dir Wind Speed Gust Speed Precip Events Conditions
12:53 AM 45.0 °F 42.1 °F 90% 30.26 in 10.0 mi Calm Calm - N/A   Clear
1:53 AM 44.1 °F 42.1 °F 93% 30.26 in 10.0 mi Calm Calm - N/A   Mostly Cloudy
2:53 AM 48.9 °F 46.9 °F 93% 30.27 in 10.0 mi East 4.6 mph - N/A   Overcast
3:53 AM 50.0 °F 46.0 °F 86% 30.27 in 10.0 mi East 4.6 mph - N/A   Overcast
4:53 AM 50.0 °F 46.0 °F 86% 30.28 in 10.0 mi ENE 3.5 mph - N/A   Overcast
5:53 AM 50.0 °F 46.9 °F 89% 30.30 in 10.0 mi East 4.6 mph - N/A   Overcast
6:53 AM 48.0 °F 44.1 °F 86% 30.32 in 10.0 mi East 5.8 mph - N/A   Scattered Clouds
7:53 AM 50.0 °F 46.9 °F 89% 30.34 in 10.0 mi East 4.6 mph - N/A   Overcast
8:53 AM 53.1 °F 48.0 °F 83% 30.36 in 10.0 mi SE 4.6 mph - N/A   Overcast
9:53 AM 55.9 °F 48.0 °F 75% 30.36 in 10.0 mi SE 4.6 mph - N/A   Overcast
10:53 AM 57.9 °F 48.0 °F 70% 30.36 in 10.0 mi SE 4.6 mph - N/A   Overcast
11:53 AM 57.9 °F 48.9 °F 72% 30.34 in 10.0 mi SSE 3.5 mph - N/A   Overcast
12:53 PM 62.1 °F 48.9 °F 62% 30.31 in 10.0 mi SE 5.8 mph - N/A   Overcast
1:53 PM 64.0 °F 48.0 °F 56% 30.28 in 10.0 mi SE 5.8 mph - N/A   Overcast
2:53 PM 64.0 °F 46.9 °F 54% 30.27 in 10.0 mi South 8.1 mph - N/A   Overcast
3:53 PM 63.0 °F 46.9 °F 56% 30.26 in 10.0 mi South 8.1 mph - N/A   Overcast
4:53 PM 62.1 °F 46.9 °F 58% 30.26 in 10.0 mi SSE 5.8 mph - N/A   Mostly Cloudy
5:53 PM 54.0 °F 46.0 °F 75% 30.25 in 10.0 mi SE 6.9 mph - N/A   Clear
6:53 PM 54.0 °F 45.0 °F 72% 30.26 in 10.0 mi SSE 4.6 mph - N/A   Clear
7:53 PM 48.0 °F 44.1 °F 86% 30.26 in 10.0 mi Calm Calm - N/A   Clear
8:53 PM 46.9 °F 43.0 °F 86% 30.26 in 10.0 mi Calm Calm - N/A   Clear
9:53 PM 45.0 °F 42.1 °F 90% 30.26 in 10.0 mi Calm Calm - N/A   Scattered Clouds
10:53 PM 50.0 °F 46.0 °F 86% 30.25 in 10.0 mi Calm Calm - N/A   Overcast
11:53 PM 50.0 °F 46.9 °F 89% 30.24 in 10.0 mi Calm Calm - N/A   Overcast